Medicine Lodge, KS

11:55 AM CST on December 05, 2019 (GMT -0600)
Medicine Lodge

Weather History for KP28 - October, 2019

Change the Weather History Date:

Tuesday, October 8, 2019

  Actual Average Record
Temperature  
Mean Temperature 62 °F 62 °F  
Max Temperature 75 °F 74 °F 99 °F (1979)
Min Temperature 48 °F 49 °F 26 °F (1952)
Degree Days  
Heating Degree Days 3 5  
Month to date heating degree days 38 35  
Since 1 July heating degree days 38 69  
Cooling Degree Days 0 2  
Month to date cooling degree days 20 21  
Year to date cooling degree days 1834 1752  
Growing Degree Days 12 (Base 50)    
Moisture  
Dew Point 46 °F    
Average Humidity 58    
Maximum Humidity 80    
Minimum Humidity 36    
Precipitation  
Precipitation 0.00 in 0.08 in 4.87 in (2018)
Month to date precipitation 1.61 0.69  
Year to date precipitation 30.19 23.14  
Snow  
Snow 0.00 in 0.00 in - ()
Month to date snowfall 0.0 0.0  
Since 1 July snowfall 0.0 0.0  
Since 1 September snowfall 0.0 0.0  
Snow Depth 0.00 in    
Sea Level Pressure  
Sea Level Pressure 30.00 in    
Wind  
Wind Speed 12 mph (SSE)    
Max Wind Speed 25 mph    
Max Gust Speed 38 mph    
T = Trace of Precipitation, MM = Missing Value Source: NWS Daily Summary

Daily Weather History Graph

Daily Weather History Graph

Search for Another Location

Airport or City:

Astronomy

Oct. 08, 2019 Rise Set
Actual Time 7:35 AM CDT 7:07 PM CDT
Civil Twilight 7:09 AM CDT 7:33 PM CDT
Nautical Twilight 6:39 AM CDT 8:03 PM CDT
Astronomical Twilight 6:09 AM CDT 8:33 PM CDT
Moon 4:59 PM CDT (10/8) 2:35 AM CDT (10/8)
Length of Visible Light 12h 23m
Length of Day
11h 31m
Waxing Gibbous, 78% of the Moon is Illuminated
Oct 8
Waxing Gibbous
Oct 13
Full
Oct 21
Last Quarter
Oct 27
New
Nov 4
First Quarter

Hourly Weather History & Observations

Time (CDT) Temp. Dew Point Humidity Pressure Visibility Wind Dir Wind Speed Gust Speed Precip Events Conditions
12:56 AM 52.0 °F 43.0 °F 71% 30.13 in - South 8.1 mph - N/A   Unknown
1:56 AM 51.1 °F 44.1 °F 77% 30.12 in - South 8.1 mph - N/A   Unknown
2:56 AM 50.0 °F 43.0 °F 77% 30.12 in - SSE 5.8 mph - N/A   Unknown
3:56 AM 50.0 °F 43.0 °F 77% 30.10 in - SSE 5.8 mph - N/A   Unknown
4:56 AM 48.9 °F 43.0 °F 80% 30.10 in - SSE 4.6 mph - N/A   Unknown
5:56 AM 48.9 °F 42.1 °F 77% 30.10 in - SE 5.8 mph - N/A   Unknown
6:56 AM 48.0 °F 42.1 °F 80% 30.09 in - SE 5.8 mph - N/A   Unknown
7:56 AM 48.9 °F 42.1 °F 77% 30.09 in - SE 6.9 mph - N/A   Unknown
8:56 AM 52.0 °F 44.1 °F 74% 30.09 in - SE 6.9 mph - N/A   Unknown
9:56 AM 55.9 °F 46.0 °F 69% 30.08 in - South 10.4 mph 20.7 mph N/A   Unknown
10:56 AM 61.0 °F 46.9 °F 60% 30.06 in - South 17.3 mph 26.5 mph N/A   Unknown
11:56 AM 66.0 °F 46.9 °F 50% 30.03 in - South 19.6 mph 29.9 mph N/A   Unknown
12:56 PM 69.1 °F 48.9 °F 49% 29.99 in - South 20.7 mph 31.1 mph N/A   Unknown
1:56 PM 72.0 °F 46.0 °F 40% 29.96 in - South 18.4 mph 32.2 mph N/A   Unknown
2:56 PM 73.0 °F 46.0 °F 38% 29.92 in - South 17.3 mph 28.8 mph N/A   Unknown
3:56 PM 73.9 °F 46.9 °F 38% 29.89 in - SSE 17.3 mph 31.1 mph N/A   Unknown
4:56 PM 75.0 °F 46.9 °F 37% 29.88 in - South 18.4 mph 31.1 mph N/A   Unknown
5:56 PM 73.0 °F 48.0 °F 41% 29.87 in - South 16.1 mph 26.5 mph N/A   Unknown
6:56 PM 69.1 °F 50.0 °F 51% 29.87 in - SSE 12.7 mph 23.0 mph N/A   Unknown
7:56 PM 66.9 °F 50.0 °F 54% 29.88 in - SSE 11.5 mph 24.2 mph N/A   Unknown
8:56 PM 64.9 °F 50.0 °F 58% 29.89 in - SSE 10.4 mph - N/A   Unknown
10:56 PM 63.0 °F 48.0 °F 58% 29.89 in - SE 11.5 mph 19.6 mph N/A   Unknown
11:56 PM 62.1 °F 46.9 °F 58% 29.87 in - SE 9.2 mph 18.4 mph N/A   Unknown